CHINASAT 9B (49125 NORAD) Tracking and Keplerian Element Data

This shows tracking and keplerian element data for the satellite.

Feedback or suggestion? Click here.




ElementValue
Catalog49125
NameCHINASAT 9B
Epoch Orbit65
Epoch Day300.59077211
Epoch Year2021
RAAN161.5966
Inclination0.0208
Eccentricity0.0003211
Argument of Perigee36.7991
Mean Anonmoly151.8837
Mean Motion1.00272194
Decay Rate-3.06E-06
L11 49125U 21080A 21300.59077211 -.00000306 00000-0 00000-0 0 9990
L22 49125 0.0208 161.5966 0003211 36.7991 151.8837 1.00272194 659

Live tracking and technical data element details for CHINASAT 9B (NORAD 49125). CHINASAT 9B can be tracked NOW for your location showing map with azimuth and elevation plus other details from your city location.

Track the satellite on the map from your city or location and see movement details for azimuth, elevation, latitude, longitude, range, height, and movement on the map or in text.







IsCatalogInMostPopularTable: catalog: 49125, numindb: 8
Update: records affected: 1



GetName: 49125 CHINASAT 9B

Hit Count: updated at: Thu, 28 Oct 2021 10:40:39 GMT